Location: Irma
(52.9170°N, 111.2330°W)
Time: 01:53:30
(UTC-06:00)

Amateur Radio Satellites - All Passes

Search period start: 30 August 2015 01:23
Search period end: 31 August 2015 01:23
Location: Irma, 52.9170°N, 111.2330°W

Satellite Date Start Highest point End Downlink Frequencies (MHz)
Time Altitude Azimuth
TIGRISAT 30 Aug 01:24:06 01:28:08 29° 298° (WNW) 01:32:03 435.000
DANDE 30 Aug 01:25:36 01:29:08 49° 94° (E) 01:33:52 436.750
QB50P1 30 Aug 01:28:18 01:32:30 51° 291° (WNW) 01:36:40 145.935-145.965
ITUPSAT 1 30 Aug 01:31:42 01:36:12 42° 66° (ENE) 01:40:43 437.325
Cosmos 2504 30 Aug 01:34:20 01:42:26 57° 290° (WNW) 01:50:56 435.465 / 435.565
ANTELSAT 30 Aug 01:40:34 01:44:11 22° 301° (WNW) 01:47:38 437.575/2403.000
Oscar 19 30 Aug 01:43:37 01:46:56 17° 86° (E) 01:50:25 437.125/150
GONETS M04 30 Aug 01:54:56 01:59:51 17° 71° (ENE) 02:05:10
STARS 30 Aug 02:03:57 02:06:02 14° 53° (NE) 02:08:17 437.465
BEESAT 30 Aug 02:06:00 02:10:46 81° 73° (ENE) 02:15:35 436.000
KKS-1 30 Aug 02:15:28 02:18:59 24° 60° (ENE) 02:22:35 437.445
TISAT 1 30 Aug 02:19:03 02:22:01 18° 271° (W) 02:24:55 437.305
PCSat 30 Aug 02:22:49 02:26:33 20° 109° (ESE) 02:30:26 145.827
RS-15 30 Aug 02:28:13 02:39:45 65° 238° (WSW) 02:51:40 29.354- 29.394
POLYITAN 1 30 Aug 02:29:36 02:32:31 17° 303° (WNW) 02:35:19 437.675
SWISSCUBE 30 Aug 02:31:46 02:36:30 59° 259° (WSW) 02:41:14 437.505
POPSAT HIP 1 30 Aug 02:33:09 02:35:57 17° 303° (WNW) 02:38:38 437.405
DUCHIFAT 1 30 Aug 02:35:36 02:38:19 16° 303° (WNW) 02:40:57 145.980
ITAMSAT 1 30 Aug 02:38:14 02:40:52 14° 84° (E) 02:43:43 435.822/435.867
SO-50 30 Aug 02:44:11 02:48:47 45° 124° (SE) 02:53:31 436.795
QB50P2 30 Aug 02:50:18 02:52:11 12° 307° (NW) 02:53:54 145.880/145.840
O/OREOS (USA 219) 30 Aug 02:52:26 02:53:40 11° 24° (NNE) 02:55:00 437.305
BUGSAT 1 30 Aug 02:52:33 02:55:15 16° 303° (WNW) 02:57:52 437.445
AUBIESAT-1 30 Aug 02:53:04 02:53:44 10° 319° (NW) 02:54:16 437.475
NANOSAT C BR1 30 Aug 02:53:05 02:54:52 12° 307° (NW) 02:56:31 145.865
CUSAT 1 30 Aug 02:56:46 03:00:20 22° 307° (NW) 03:04:39 437.405
AIST 2 30 Aug 03:00:58 03:04:06 20° 244° (WSW) 03:07:07 435.215
DANDE 30 Aug 03:09:41 03:12:51 22° 306° (NW) 03:16:41 436.750
ITUPSAT 1 30 Aug 03:09:55 03:14:13 32° 266° (W) 03:18:29 437.325
AO-7 30 Aug 03:21:39 03:23:32 11° 75° (ENE) 03:26:04 29.400- 29.500
Oscar 19 30 Aug 03:21:49 03:27:05 87° 287° (WNW) 03:32:18 437.125/150
Cosmos 2504 30 Aug 03:31:20 03:37:01 19° 317° (NW) 03:42:33 435.465 / 435.565
STARS 30 Aug 03:37:22 03:41:47 73° 71° (ENE) 03:46:14 437.465
JAS-2 30 Aug 03:40:48 03:47:22 35° 89° (E) 03:53:21 435.910
BEESAT 30 Aug 03:46:08 03:49:16 17° 273° (W) 03:52:17 436.000
Gurwin Techsat 1B 30 Aug 03:46:10 03:51:26 57° 101° (E) 03:56:40 435.225
GONETS M04 30 Aug 03:46:34 03:55:06 66° 94° (E) 04:03:45
MOZHAYETS 4 30 Aug 03:48:53 03:52:50 29° 63° (ENE) 03:56:51
KKS-1 30 Aug 03:50:55 03:55:19 57° 259° (W) 03:59:46 437.445
PCSat 30 Aug 04:03:54 04:09:21 90° 86° (E) 04:14:50 145.827
Cosmos 2499 30 Aug 04:07:37 04:14:38 30° 80° (E) 04:22:03 435.465 / 435.565
ITAMSAT 1 30 Aug 04:16:07 04:21:20 80° 105° (ESE) 04:26:32 435.822/435.867
SO-50 30 Aug 04:24:39 04:29:23 47° 326° (NW) 04:34:12 436.795
O/OREOS (USA 219) 30 Aug 04:30:21 04:34:34 34° 48° (NE) 04:38:47 437.305
RS-15 30 Aug 04:42:05 04:50:10 21° 261° (W) 04:57:47 29.354- 29.394
HORYU 2 30 Aug 04:47:29 04:51:15 26° 93° (E) 04:55:03 437.375
Oscar 19 30 Aug 05:02:10 05:05:49 19° 306° (NW) 05:09:19 437.125/150
AO-7 30 Aug 05:10:52 05:18:52 49° 100° (E) 05:26:53 29.400- 29.500
STARS 30 Aug 05:15:50 05:18:46 17° 272° (W) 05:21:36 437.465
MOZHAYETS 4 30 Aug 05:25:29 05:29:55 45° 262° (W) 05:34:22
JAS-2 30 Aug 05:25:37 05:32:58 63° 293° (WNW) 05:39:28 435.910
Gurwin Techsat 1B 30 Aug 05:26:35 05:31:10 30° 300° (WNW) 05:35:40 435.225
CUBESAT XI-V 30 Aug 05:36:58 05:41:02 33° 64° (ENE) 05:45:11 437.345
GONETS M04 30 Aug 05:44:37 05:52:38 38° 299° (WNW) 06:00:38
PCSat 30 Aug 05:48:42 05:53:27 29° 331° (NNW) 05:58:12 145.827
ITAMSAT 1 30 Aug 05:56:25 06:00:21 22° 305° (NW) 06:04:11 435.822/435.867
Cosmos 2499 30 Aug 05:58:25 06:07:00 81° 282° (WNW) 06:15:59 435.465 / 435.565
SO-50 30 Aug 06:07:03 06:11:01 23° 349° (N) 06:14:59 436.795
O/OREOS (USA 219) 30 Aug 06:09:44 06:14:08 43° 249° (WSW) 06:18:29 437.305
STRAND 1 30 Aug 06:17:10 06:21:31 30° 60° (ENE) 06:25:56 437.568
HORYU 2 30 Aug 06:23:48 06:28:07 46° 292° (WNW) 06:32:21 437.375
CUTE-I 30 Aug 06:26:43 06:29:36 15° 84° (E) 06:32:41 437.470
PRISM 30 Aug 06:53:38 06:57:22 35° 66° (ENE) 07:01:08 437.425
AO-7 30 Aug 07:03:50 07:11:51 54° 302° (WNW) 07:19:48 29.400- 29.500
YUBILEINY 30 Aug 07:05:43 07:12:42 26° 51° (NE) 07:19:52 435.215
JAS-2 30 Aug 07:11:32 07:16:40 20° 316° (NW) 07:21:18 435.910
CUBESAT XI-V 30 Aug 07:14:07 07:18:27 39° 264° (W) 07:22:46 437.345
Cubesat XI-IV 30 Aug 07:19:51 07:24:47 37° 96° (E) 07:29:44 437.490
PCSat 30 Aug 07:34:49 07:38:34 18° 357° (N) 07:42:19 145.827
SO-50 30 Aug 07:49:01 07:53:02 24° 13° (NNE) 07:57:04 436.795
GONETS M04 30 Aug 07:49:11 07:52:55 13° 329° (NNW) 07:56:20
BRITE-PL 30 Aug 07:50:24 07:54:10 19° 86° (E) 07:58:13 437.365/2234.400
Cosmos 2499 30 Aug 07:54:39 08:01:48 26° 309° (NW) 08:08:56 435.465 / 435.565
STRAND 1 30 Aug 07:55:31 08:00:30 53° 259° (W) 08:05:32 437.568
Cosmos 2491 30 Aug 08:04:40 08:09:32 17° 71° (ENE) 08:14:47 435.465 / 435.565
CUTE-I 30 Aug 08:05:16 08:10:38 81° 104° (ESE) 08:15:59 437.470
HO-68 30 Aug 08:25:36 08:29:36 16° 81° (E) 08:33:56 435.675
GOMX 1 30 Aug 08:28:35 08:32:55 25° 89° (E) 08:37:26 467.674
PRISM 30 Aug 08:29:13 08:32:51 29° 265° (W) 08:36:28 437.425
AIST 1 30 Aug 08:34:08 08:37:49 30° 90° (E) 08:41:34
CUTE 1.7 + AOD 2 30 Aug 08:48:18 08:50:11 13° 84° (E) 08:52:13 437.475
UNISAT 6 30 Aug 08:50:21 08:50:53 10° 48° (NE) 08:51:35 437.425
DOVE 4 30 Aug 08:51:14 08:55:29 25° 89° (E) 08:59:51 437.250
AO-7 30 Aug 08:57:20 09:03:03 21° 326° (NNW) 09:08:34 29.400- 29.500
Cubesat XI-IV 30 Aug 08:59:59 09:04:59 42° 296° (WNW) 09:09:58 437.490
AUBIESAT-1 30 Aug 09:00:52 09:03:54 18° 49° (NE) 09:06:58 437.475
CANX-2 30 Aug 09:01:14 09:04:11 19° 89° (E) 09:07:14 2200.000
YUBILEINY 30 Aug 09:02:17 09:11:12 81° 78° (ENE) 09:20:03 435.215
M-CUBED/EXP-1 PRIME 30 Aug 09:03:53 09:07:20 21° 51° (NE) 09:10:49 437.505
TIGRISAT 30 Aug 09:17:07 09:19:50 16° 54° (NE) 09:22:43 435.000
PCSat 30 Aug 09:19:25 09:23:49 24° 22° (NNE) 09:28:16 145.827
Cosmos 2504 30 Aug 09:21:25 09:28:06 25° 51° (NE) 09:34:48 435.465 / 435.565
SEEDS 30 Aug 09:25:43 09:29:04 23° 91° (E) 09:32:27 437.485
BRITE-PL 30 Aug 09:27:56 09:33:19 85° 287° (WNW) 09:38:59 437.365/2234.400
SO-50 30 Aug 09:29:44 09:34:37 51° 36° (NE) 09:39:25 436.795
ANTELSAT 30 Aug 09:32:33 09:35:59 21° 58° (ENE) 09:39:31 437.575/2403.000
CUTE-I 30 Aug 09:46:09 09:50:13 22° 305° (NW) 09:54:10 437.470
CINEMA 3 30 Aug 09:49:50 09:54:25 35° 93° (E) 09:58:59 145.822/145.860
COMPASS 1 30 Aug 09:50:24 09:54:08 31° 94° (E) 09:57:51 437.405
CUBEBUG 2 30 Aug 09:52:53 09:56:11 19° 87° (E) 09:59:32 437.445
Cosmos 2491 30 Aug 09:56:15 10:04:48 66° 94° (E) 10:13:25 435.465 / 435.565
PHONESAT 2.4 30 Aug 09:56:38 09:57:22 11° 182° (S) 09:58:05 2401.200-2431.200
CUSAT 1 30 Aug 09:58:25 10:04:10 26° 56° (NE) 10:10:44 437.405
ZACube-1 30 Aug 10:01:28 10:03:41 14° 84° (E) 10:06:04 437.345
AAUSAT CUBESAT 2 30 Aug 10:02:09 10:05:58 34° 96° (E) 10:09:46 437.432
UWE-3 30 Aug 10:03:40 10:06:51 18° 87° (E) 10:10:07 435.000/436.395/437.385
GOMX 1 30 Aug 10:06:09 10:11:28 67° 289° (WNW) 10:16:56 467.674
FUNcube-1 30 Aug 10:07:26 10:09:59 15° 85° (E) 10:12:40 145.935
AIST 1 30 Aug 10:11:30 10:15:26 34° 290° (WNW) 10:19:21
HO-68 30 Aug 10:11:42 10:18:54 67° 104° (ESE) 10:26:05 435.675
DANDE 30 Aug 10:13:30 10:18:43 23° 56° (NE) 10:24:55 436.750
POLYITAN 1 30 Aug 10:17:03 10:20:07 20° 59° (ENE) 10:23:18 437.675
POPSAT HIP 1 30 Aug 10:20:18 10:23:25 21° 60° (ENE) 10:26:39 437.405
UNISAT 6 30 Aug 10:22:08 10:26:38 48° 68° (ENE) 10:31:13 437.425
DUCHIFAT 1 30 Aug 10:22:21 10:25:29 21° 59° (ENE) 10:28:41 145.980
CUTE 1.7 + AOD 2 30 Aug 10:22:31 10:26:48 88° 281° (W) 10:31:01 437.475
ISS 30 Aug 10:26:16 10:28:04 14° 143° (SE) 10:29:55 145.825
DOVE 4 30 Aug 10:28:25 10:33:40 65° 289° (WNW) 10:38:56 437.250
AUBIESAT-1 30 Aug 10:33:15 10:38:01 80° 67° (ENE) 10:42:39 437.475
QB50P2 30 Aug 10:36:12 10:39:49 28° 63° (ENE) 10:43:31 145.880/145.840
CANX-2 30 Aug 10:36:19 10:40:32 60° 289° (WNW) 10:44:42 2200.000
M-CUBED/EXP-1 PRIME 30 Aug 10:36:47 10:41:37 85° 247° (WSW) 10:46:21 437.505
BUGSAT 1 30 Aug 10:37:56 10:40:46 19° 59° (ENE) 10:43:44 437.445
NANOSAT C BR1 30 Aug 10:38:36 10:42:13 28° 63° (ENE) 10:45:54 145.865
DELFI C3 30 Aug 10:38:54 10:42:16 26° 93° (E) 10:45:40 145.870
Cubesat XI-IV 30 Aug 10:42:46 10:43:54 11° 317° (NW) 10:44:49 437.490
AO-7 30 Aug 10:50:07 10:52:41 12° 354° (N) 10:55:13 29.400- 29.500
QB50P1 30 Aug 10:51:12 10:55:05 36° 66° (ENE) 10:59:02 145.935-145.965
TIGRISAT 30 Aug 10:51:13 10:55:55 81° 73° (ENE) 11:00:41 435.000
Oscar 11 30 Aug 10:56:58 11:01:16 56° 100° (E) 11:05:30 145.826/435.025
YUBILEINY 30 Aug 10:59:54 11:07:14 30° 280° (W) 11:14:20 435.215
HUMSAT D 30 Aug 11:00:14 11:03:19 20° 89° (E) 11:06:28 437.325/437.525
SEEDS 30 Aug 11:01:02 11:05:06 47° 291° (WNW) 11:09:07 437.485
PCSat 30 Aug 11:02:49 11:08:14 65° 46° (NE) 11:13:39 145.827
UKube-1 30 Aug 11:03:32 11:04:54 11° 84° (E) 11:06:28 .
BRITE-PL 30 Aug 11:07:29 11:11:15 20° 304° (NW) 11:15:01 437.365/2234.400
ANTELSAT 30 Aug 11:07:36 11:12:19 73° 257° (WSW) 11:17:03 437.575/2403.000
SO-50 30 Aug 11:10:29 11:15:08 40° 237° (WSW) 11:19:40 436.795
Cosmos 2504 30 Aug 11:13:18 11:22:00 78° 77° (ENE) 11:30:15 435.465 / 435.565
COMPASS 1 30 Aug 11:26:01 11:29:50 34° 294° (WNW) 11:33:35 437.405
CINEMA 3 30 Aug 11:26:56 11:31:42 42° 294° (WNW) 11:36:22 145.822/145.860
CUBEBUG 2 30 Aug 11:28:39 11:33:26 71° 287° (WNW) 11:38:03 437.445
50 SAT 30 Aug 11:30:20 11:32:48 16° 88° (E) 11:35:21 437.505
VELOX 1 30 Aug 11:30:56 11:33:38 16° 87° (E) 11:36:29 145.980
Oscar 19 30 Aug 11:31:31 11:32:34 11° 45° (NE) 11:33:49 437.125/150
ZACube-1 30 Aug 11:36:12 11:40:49 89° 105° (ESE) 11:45:18 437.345
AAUSAT CUBESAT 2 30 Aug 11:37:50 11:41:31 31° 295° (WNW) 11:45:09 437.432
UWE-3 30 Aug 11:39:15 11:43:56 70° 288° (WNW) 11:48:28 435.000/436.395/437.385
CUSAT 1 30 Aug 11:40:24 11:47:41 83° 75° (ENE) 11:55:58 437.405
FUNcube-1 30 Aug 11:42:25 11:47:00 83° 284° (WNW) 11:51:27 145.935
GOMX 1 30 Aug 11:45:37 11:48:47 16° 307° (NW) 11:51:50 467.674
POLYITAN 1 30 Aug 11:51:22 11:55:38 65° 258° (WSW) 11:59:56 437.675
GONETS M04 30 Aug 11:52:54 11:57:35 15° 37° (NE) 12:02:36
Cosmos 2491 30 Aug 11:54:16 12:02:20 39° 299° (WNW) 12:10:20 435.465 / 435.565
POPSAT HIP 1 30 Aug 11:54:42 11:58:55 62° 258° (WSW) 12:03:13 437.405
DANDE 30 Aug 11:55:53 12:02:48 78° 75° (ENE) 12:11:09 436.750
DUCHIFAT 1 30 Aug 11:56:42 12:00:54 61° 258° (WSW) 12:05:09 145.980
UNISAT 6 30 Aug 11:59:35 12:03:38 28° 268° (W) 12:07:41 437.425
CUTE 1.7 + AOD 2 30 Aug 11:59:44 12:02:07 15° 304° (NW) 12:04:22 437.475
HO-68 30 Aug 11:59:52 12:06:19 36° 305° (NW) 12:12:41 435.675
ISS 30 Aug 12:00:48 12:03:55 45° 161° (SSE) 12:07:03 145.825
DOVE 4 30 Aug 12:07:33 12:10:33 15° 308° (NW) 12:13:26 437.250
AUBIESAT-1 30 Aug 12:09:57 12:13:13 18° 266° (W) 12:16:20 437.475
QB50P2 30 Aug 12:11:30 12:15:34 42° 262° (W) 12:19:40 145.880/145.840
BUGSAT 1 30 Aug 12:11:47 12:15:50 64° 258° (WSW) 12:19:58 437.445
DELFI C3 30 Aug 12:13:42 12:17:27 38° 292° (WNW) 12:21:09 145.870
NANOSAT C BR1 30 Aug 12:13:52 12:17:54 41° 262° (W) 12:21:59 145.865
M-CUBED/EXP-1 PRIME 30 Aug 12:14:12 12:17:03 15° 268° (W) 12:19:42 437.505
CANX-2 30 Aug 12:14:38 12:15:39 11° 308° (NW) 12:16:30 2200.000
ESTCUBE 1 30 Aug 12:18:20 12:22:24 33° 95° (E) 12:26:28 437.505/2401.250
JAS-2 30 Aug 12:18:42 12:21:52 13° 34° (NE) 12:25:16 435.910
DX 1 30 Aug 12:22:12 12:26:35 64° 102° (ESE) 12:30:56 434.975-435.025
QB50P1 30 Aug 12:27:09 12:30:59 31° 265° (W) 12:34:50 145.935-145.965
TIGRISAT 30 Aug 12:30:12 12:33:18 17° 274° (W) 12:36:15 435.000
Oscar 11 30 Aug 12:33:44 12:37:09 22° 299° (WNW) 12:40:26 145.826/435.025
HUMSAT D 30 Aug 12:35:13 12:39:27 58° 289° (WNW) 12:43:36 437.325/437.525
UKube-1 30 Aug 12:37:28 12:41:51 80° 106° (ESE) 12:46:12 .
AISAT 30 Aug 12:37:32 12:42:01 62° 102° (ESE) 12:46:27 437.250
AO-7 30 Aug 12:37:48 12:42:00 15° 23° (NNE) 12:46:22 29.400- 29.500
CUBEBUG 1 30 Aug 12:43:18 12:47:33 46° 99° (E) 12:51:50 437.445
SPROUT 30 Aug 12:45:52 12:48:56 19° 89° (E) 12:52:06 437.525
PCSat 30 Aug 12:46:41 12:51:22 29° 247° (WSW) 12:55:57 145.827
ANTELSAT 30 Aug 12:48:13 12:50:01 12° 278° (W) 12:51:36 437.575/2403.000
50 SAT 30 Aug 13:03:52 13:07:44 59° 289° (WNW) 13:11:32 437.505
Oscar 19 30 Aug 13:05:54 13:10:47 44° 65° (ENE) 13:15:44 437.125/150
Cosmos 2504 30 Aug 13:06:14 13:13:29 31° 280° (W) 13:20:17 435.465 / 435.565
VELOX 1 30 Aug 13:06:17 13:10:47 77° 287° (WNW) 13:15:15 145.980
CUBEBUG 2 30 Aug 13:06:46 13:09:19 14° 307° (NW) 13:11:42 437.445
ZACube-1 30 Aug 13:13:39 13:16:34 17° 304° (NW) 13:19:20 437.345
UWE-3 30 Aug 13:17:17 13:19:40 14° 307° (NW) 13:21:53 435.000/436.395/437.385
FUNcube-1 30 Aug 13:19:58 13:22:39 15° 305° (NW) 13:25:11 145.935
CUSAT 1 30 Aug 13:23:36 13:29:48 29° 273° (W) 13:36:25 437.405
Gurwin Techsat 1B 30 Aug 13:34:36 13:39:09 31° 60° (ENE) 13:43:48 435.225
ISS 30 Aug 13:36:54 13:40:09 72° 181° (S) 13:43:24 145.825
DANDE 30 Aug 13:39:34 13:45:38 31° 271° (W) 13:52:24 436.750
GONETS M04 30 Aug 13:48:59 13:57:23 47° 66° (ENE) 14:05:51
HO-68 30 Aug 13:49:07 13:52:09 13° 329° (NNW) 13:54:59 435.675
Cosmos 2499 30 Aug 13:49:55 13:55:52 20° 44° (NE) 14:01:55 435.465 / 435.565
ESTCUBE 1 30 Aug 13:55:09 13:59:19 37° 294° (WNW) 14:03:27 437.505/2401.250
TISAT 1 30 Aug 13:55:34 13:59:44 48° 99° (E) 14:03:54 437.305
JAS-2 30 Aug 13:58:02 14:04:54 36° 57° (ENE) 14:11:51 435.910
Cosmos 2491 30 Aug 13:58:50 14:02:36 13° 328° (NNW) 14:06:02 435.465 / 435.565
DX 1 30 Aug 13:59:09 14:02:28 21° 301° (WNW) 14:05:42 434.975-435.025
ITAMSAT 1 30 Aug 14:01:24 14:06:11 40° 64° (ENE) 14:11:01 435.822/435.867
BEESAT 30 Aug 14:01:38 14:03:52 13° 84° (E) 14:06:19 436.000
HUMSAT D 30 Aug 14:13:26 14:14:20 10° 309° (NW) 14:15:03 437.325/437.525
UKube-1 30 Aug 14:14:34 14:17:28 17° 304° (WNW) 14:20:16 .
AISAT 30 Aug 14:14:45 14:18:13 22° 301° (WNW) 14:21:37 437.250
HORYU 2 30 Aug 14:19:13 14:19:48 10° 49° (NE) 14:20:34 437.375
CUBEBUG 1 30 Aug 14:19:59 14:23:45 27° 298° (WNW) 14:27:27 437.445
SPROUT 30 Aug 14:21:07 14:25:26 62° 289° (WNW) 14:29:44 437.525
AO-7 30 Aug 14:25:17 14:32:30 35° 48° (NE) 14:39:50 29.400- 29.500
SWISSCUBE 30 Aug 14:26:18 14:30:04 23° 91° (E) 14:33:54 437.505
VELOX 1 30 Aug 14:44:14 14:46:39 14° 306° (NW) 14:48:57 145.980
Oscar 19 30 Aug 14:45:33 14:50:17 34° 265° (W) 14:55:01 437.125/150
RS-15 30 Aug 14:58:28 14:59:43 10° 90° (E) 15:01:58 29.354- 29.394
ITUPSAT 1 30 Aug 15:03:37 15:08:10 42° 98° (E) 15:12:43 437.325
ISS 30 Aug 15:13:16 15:16:22 41° 201° (SSW) 15:19:27 145.825
Gurwin Techsat 1B 30 Aug 15:13:43 15:18:55 55° 260° (W) 15:24:10 435.225
TISAT 1 30 Aug 15:31:45 15:35:16 25° 298° (WNW) 15:38:45 437.305
KKS-1 30 Aug 15:36:30 15:39:41 19° 89° (E) 15:42:57 437.445
BEESAT 30 Aug 15:37:46 15:42:34 83° 105° (ESE) 15:47:20 436.000
ITAMSAT 1 30 Aug 15:40:54 15:45:44 39° 263° (W) 15:50:35 435.822/435.867
JAS-2 30 Aug 15:41:41 15:49:27 74° 257° (WSW) 15:57:20 435.910
Cosmos 2499 30 Aug 15:42:37 15:51:22 60° 71° (ENE) 15:59:39 435.465 / 435.565
GONETS M04 30 Aug 15:46:01 15:54:30 54° 270° (W) 16:02:55
HORYU 2 30 Aug 15:51:09 15:55:31 51° 68° (ENE) 15:59:55 437.375
SPROUT 30 Aug 15:59:15 16:00:43 11° 308° (NW) 16:02:02 437.525
SWISSCUBE 30 Aug 16:03:37 16:08:18 57° 291° (WNW) 16:12:58 437.505
AO-7 30 Aug 16:16:20 16:24:43 81° 251° (WSW) 16:33:08 29.400- 29.500
CUTE-I 30 Aug 16:18:53 16:19:58 11° 44° (NE) 16:21:15 437.470
BEESAT 3 30 Aug 16:26:50 16:30:40 40° 124° (SE) 16:34:32 437.485
BEESAT 2 30 Aug 16:36:44 16:40:34 39° 124° (SE) 16:44:27 435.950
ITUPSAT 1 30 Aug 16:41:43 16:45:59 32° 297° (WNW) 16:50:11 437.325
ISS 30 Aug 16:50:40 16:52:10 12° 219° (SW) 16:53:36 145.825
STARS 30 Aug 16:57:14 17:01:40 61° 101° (ESE) 17:06:05 437.465
RS-15 30 Aug 16:58:58 17:09:04 46° 114° (ESE) 17:19:43 29.354- 29.394
AIST 2 30 Aug 17:04:07 17:07:12 20° 116° (ESE) 17:10:22 435.215
Cubesat XI-IV 30 Aug 17:09:45 17:13:45 23° 55° (NE) 17:17:52 437.490
KKS-1 30 Aug 17:12:18 17:16:48 65° 288° (WNW) 17:21:14 437.445
MOZHAYETS 4 30 Aug 17:14:27 17:18:24 28° 93° (E) 17:22:23
BEESAT 30 Aug 17:16:32 17:19:52 19° 304° (NW) 17:23:07 436.000
HO-68 30 Aug 17:20:17 17:20:57 10° 24° (NNE) 17:21:50 435.675
HORYU 2 30 Aug 17:28:44 17:32:26 24° 268° (W) 17:36:05 437.375
JAS-2 30 Aug 17:30:15 17:35:53 20° 280° (W) 17:41:16 435.910
Cosmos 2499 30 Aug 17:36:13 17:44:19 42° 275° (W) 17:51:53 435.465 / 435.565
SWISSCUBE 30 Aug 17:43:23 17:45:16 12° 311° (NW) 17:47:00 437.505
GONETS M04 30 Aug 17:45:27 17:49:24 13° 293° (WNW) 17:52:52
CUTE-I 30 Aug 17:53:53 17:58:52 43° 65° (ENE) 18:03:54 437.470
Cosmos 2491 30 Aug 18:02:44 18:07:18 15° 37° (NE) 18:12:11 435.465 / 435.565
BEESAT 3 30 Aug 18:04:45 18:08:37 39° 325° (NW) 18:12:30 437.485
AO-7 30 Aug 18:12:38 18:18:59 22° 274° (W) 18:25:03 29.400- 29.500
BEESAT 2 30 Aug 18:14:42 18:18:37 41° 324° (NW) 18:22:33 435.950
STARS 30 Aug 18:34:18 18:37:46 22° 301° (WNW) 18:41:08 437.465
AIST 1 30 Aug 18:34:57 18:37:44 17° 60° (ENE) 18:40:38
AIST 2 30 Aug 18:41:05 18:45:21 75° 315° (NW) 18:49:37 435.215
Cubesat XI-IV 30 Aug 18:48:02 18:53:22 79° 255° (WSW) 18:58:45 437.490
KKS-1 30 Aug 18:50:39 18:52:38 13° 308° (NW) 18:54:29 437.445
MOZHAYETS 4 30 Aug 18:51:27 18:55:48 43° 293° (WNW) 19:00:07
O/OREOS (USA 219) 30 Aug 18:53:11 18:53:23 10° 97° (E) 18:53:50 437.305
HO-68 30 Aug 19:00:41 19:06:24 27° 49° (NE) 19:12:16 435.675
CUBESAT XI-V 30 Aug 19:04:15 19:08:28 34° 95° (E) 19:12:44 437.345
BRITE-PL 30 Aug 19:07:32 19:11:31 33° 63° (ENE) 19:15:50 437.365/2234.400
RS-15 30 Aug 19:09:54 19:20:59 75° 321° (NW) 19:32:40 29.354- 29.394
CINEMA 3 30 Aug 19:23:29 19:25:28 13° 50° (NE) 19:27:40 145.822/145.860
CUTE-I 30 Aug 19:34:09 19:39:04 37° 264° (W) 19:43:58 437.470
GOMX 1 30 Aug 19:42:47 19:47:05 41° 66° (ENE) 19:51:46 467.674
BEESAT 3 30 Aug 19:44:44 19:47:32 17° 347° (NNW) 19:50:18 437.485
CUTE 1.7 + AOD 2 30 Aug 19:46:26 19:49:40 22° 61° (ENE) 19:52:58 437.475
BEESAT 2 30 Aug 19:54:46 19:57:38 18° 347° (NNW) 20:00:28 435.950
Cosmos 2491 30 Aug 19:58:47 20:07:08 47° 66° (ENE) 20:15:32 435.465 / 435.565
CANX-2 30 Aug 19:59:38 20:03:22 29° 64° (ENE) 20:07:07 2200.000
STRAND 1 30 Aug 19:59:48 20:04:23 33° 94° (E) 20:09:01 437.568
DOVE 4 30 Aug 20:02:36 20:06:59 41° 66° (ENE) 20:11:42 437.250
PRISM 30 Aug 20:04:58 20:08:19 24° 93° (E) 20:11:44 437.425
AIST 1 30 Aug 20:11:38 20:15:57 72° 262° (W) 20:20:17
YUBILEINY 30 Aug 20:17:44 20:23:27 20° 73° (ENE) 20:29:31 435.215
AIST 2 30 Aug 20:21:05 20:24:33 23° 338° (NNW) 20:27:59 435.215
SEEDS 30 Aug 20:23:13 20:27:06 35° 66° (ENE) 20:31:00 437.485
Oscar 11 30 Aug 20:23:32 20:26:06 16° 56° (ENE) 20:28:46 145.826/435.025
O/OREOS (USA 219) 30 Aug 20:27:28 20:31:59 66° 115° (ESE) 20:36:33 437.305
Cubesat XI-IV 30 Aug 20:31:29 20:34:28 15° 276° (W) 20:37:14 437.490
CUBESAT XI-V 30 Aug 20:41:40 20:45:58 37° 294° (WNW) 20:50:13 437.345
BRITE-PL 30 Aug 20:45:49 20:50:00 39° 265° (W) 20:54:30 437.365/2234.400
HO-68 30 Aug 20:46:13 20:53:24 88° 71° (ENE) 21:00:40 435.675
COMPASS 1 30 Aug 20:47:02 20:51:05 47° 69° (ENE) 20:55:09 437.405
CUBEBUG 2 30 Aug 20:56:26 21:00:34 32° 63° (ENE) 21:04:49 437.445
CINEMA 3 30 Aug 20:57:03 21:01:43 59° 70° (ENE) 21:06:36 145.822/145.860
AAUSAT CUBESAT 2 30 Aug 20:58:19 21:02:24 51° 70° (ENE) 21:06:29 437.432
ZACube-1 30 Aug 21:02:33 21:06:11 24° 61° (ENE) 21:09:55 437.345
UWE-3 30 Aug 21:06:06 21:10:09 31° 64° (ENE) 21:14:20 435.000/436.395/437.385
FUNcube-1 30 Aug 21:08:23 21:12:07 26° 62° (ENE) 21:15:58 145.935
CUTE 1.7 + AOD 2 30 Aug 21:21:01 21:25:16 58° 260° (W) 21:29:31 437.475
GOMX 1 30 Aug 21:21:15 21:25:22 32° 268° (W) 21:29:46 467.674
BEESAT 3 30 Aug 21:24:07 21:26:50 17° 11° (N) 21:29:33 437.485
RS-15 30 Aug 21:24:33 21:35:22 47° 352° (N) 21:46:43 29.354- 29.394
DELFI C3 30 Aug 21:31:26 21:35:09 36° 67° (ENE) 21:38:54 145.870
BEESAT 2 30 Aug 21:34:18 21:37:03 17° 11° (N) 21:39:48 435.950
CANX-2 30 Aug 21:35:08 21:39:11 39° 263° (W) 21:43:14 2200.000
STRAND 1 30 Aug 21:38:54 21:43:46 45° 295° (WNW) 21:48:36 437.568
PRISM 30 Aug 21:40:02 21:43:57 43° 292° (WNW) 21:47:50 437.425
DOVE 4 30 Aug 21:40:36 21:44:52 33° 267° (W) 21:49:21 437.250
DX 1 30 Aug 21:49:01 21:52:04 19° 58° (ENE) 21:55:13 434.975-435.025
ESTCUBE 1 30 Aug 21:50:24 21:51:57 12° 51° (NE) 21:53:40 437.505/2401.250
Cosmos 2491 30 Aug 21:55:51 22:04:17 54° 270° (W) 22:12:40 435.465 / 435.565
HUMSAT D 30 Aug 21:57:19 22:01:06 31° 64° (ENE) 22:04:57 437.325/437.525
Oscar 11 30 Aug 21:57:20 22:01:43 89° 266° (W) 22:06:06 145.826/435.025
SEEDS 30 Aug 21:59:05 22:02:55 31° 266° (W) 22:06:43 437.485
AIST 2 30 Aug 22:01:42 22:04:27 16° 1° (N) 22:07:10 435.215
UKube-1 30 Aug 22:03:08 22:06:29 23° 60° (ENE) 22:09:55 .
Cosmos 2504 30 Aug 22:04:31 22:07:35 13° 67° (ENE) 22:11:11 435.465 / 435.565
AISAT 30 Aug 22:06:12 22:09:19 19° 58° (ENE) 22:12:32 437.250
O/OREOS (USA 219) 30 Aug 22:08:02 22:11:51 25° 317° (NW) 22:15:39 437.305
YUBILEINY 30 Aug 22:10:09 22:18:53 75° 96° (E) 22:27:43 435.215
CUBEBUG 1 30 Aug 22:11:31 22:13:43 14° 54° (NE) 22:16:04 437.445
50 SAT 30 Aug 22:19:13 22:22:21 23° 62° (ENE) 22:25:31 437.505
COMPASS 1 30 Aug 22:23:32 22:26:59 23° 269° (W) 22:30:21 437.405
CUBEBUG 2 30 Aug 22:32:41 22:37:08 43° 263° (W) 22:41:42 437.445
VELOX 1 30 Aug 22:33:53 22:37:42 30° 63° (ENE) 22:41:36 145.980
AAUSAT CUBESAT 2 30 Aug 22:35:02 22:38:18 21° 270° (W) 22:41:29 437.432
CINEMA 3 30 Aug 22:35:27 22:39:19 24° 271° (W) 22:43:14 145.822/145.860
HO-68 30 Aug 22:36:30 22:42:10 24° 273° (W) 22:47:40 435.675
ZACube-1 30 Aug 22:37:43 22:42:13 58° 260° (W) 22:46:48 437.345
TIGRISAT 30 Aug 22:38:59 22:40:36 12° 82° (E) 22:42:25 435.000
UWE-3 30 Aug 22:42:08 22:46:34 43° 263° (W) 22:51:03 435.000/436.395/437.385
FUNcube-1 30 Aug 22:43:43 22:48:12 52° 261° (W) 22:52:43 145.935
ANTELSAT 30 Aug 22:54:35 22:57:32 17° 86° (E) 23:00:34 437.575/2403.000
BEESAT 3 30 Aug 23:01:58 23:05:46 37° 34° (NE) 23:09:33 437.485
DELFI C3 30 Aug 23:06:45 23:10:18 28° 266° (W) 23:13:48 145.870
BEESAT 2 30 Aug 23:12:18 23:16:08 36° 33° (NNE) 23:19:55 435.950
TISAT 1 30 Aug 23:20:18 23:22:19 14° 54° (NE) 23:24:28 437.305
STRAND 1 30 Aug 23:20:45 23:21:52 11° 315° (NW) 23:22:47 437.568
DX 1 30 Aug 23:23:34 23:27:53 70° 257° (WSW) 23:32:15 434.975-435.025
ESTCUBE 1 30 Aug 23:23:36 23:28:01 62° 71° (ENE) 23:32:28 437.505/2401.250
POLYITAN 1 30 Aug 23:31:50 23:34:13 15° 86° (E) 23:36:44 437.675
HUMSAT D 30 Aug 23:32:41 23:36:46 38° 264° (W) 23:40:50 437.325/437.525
POPSAT HIP 1 30 Aug 23:34:47 23:37:17 15° 87° (E) 23:39:55 437.405
DUCHIFAT 1 30 Aug 23:36:18 23:38:45 15° 86° (E) 23:41:21 145.980
Oscar 11 30 Aug 23:36:32 23:38:37 13° 276° (W) 23:40:33 145.826/435.025
UKube-1 30 Aug 23:38:04 23:42:19 56° 259° (W) 23:46:35 .
RS-15 30 Aug 23:39:07 23:50:26 56° 24° (NNE) 00:02:18 29.354- 29.394
AIST 2 30 Aug 23:40:44 23:44:17 25° 25° (NNE) 23:47:50 435.215
AISAT 30 Aug 23:41:02 23:45:27 71° 257° (WSW) 23:49:55 437.250
AUBIESAT-1 30 Aug 23:43:36 23:46:47 22° 96° (E) 23:49:48 437.475
UNISAT 6 30 Aug 23:44:39 23:49:06 44° 98° (E) 23:53:27 437.425
CUBEBUG 1 30 Aug 23:45:06 23:49:26 80° 73° (ENE) 23:53:48 437.445
SPROUT 30 Aug 23:45:31 23:49:17 31° 64° (ENE) 23:53:08 437.525
M-CUBED/EXP-1 PRIME 30 Aug 23:47:36 23:51:11 27° 99° (E) 23:54:32 437.505
BUGSAT 1 30 Aug 23:49:10 23:51:11 13° 86° (E) 23:53:22 437.445
Cosmos 2504 30 Aug 23:50:00 23:57:50 51° 89° (E) 00:06:05 435.465 / 435.565
QB50P2 30 Aug 23:50:54 23:54:14 22° 91° (E) 23:57:38 145.880/145.840
NANOSAT C BR1 30 Aug 23:52:49 23:56:08 22° 91° (E) 23:59:30 145.865
50 SAT 30 Aug 23:52:49 23:56:39 45° 261° (W) 00:00:29 437.505
Cosmos 2491 30 Aug 23:55:17 23:59:14 13° 292° (WNW) 00:02:42 435.465 / 435.565
SWISSCUBE 31 Aug 00:04:53 00:06:08 11° 48° (NE) 00:07:33 437.505
QB50P1 31 Aug 00:05:44 00:09:29 28° 94° (E) 00:13:15 145.935-145.965
YUBILEINY 31 Aug 00:08:43 00:16:39 35° 301° (WNW) 00:24:32 435.215
VELOX 1 31 Aug 00:09:59 00:14:09 41° 262° (W) 00:18:21 145.980
TIGRISAT 31 Aug 00:13:36 00:18:17 77° 105° (ESE) 00:22:49 435.000
ANTELSAT 31 Aug 00:30:15 00:34:56 75° 287° (WNW) 00:39:26 437.575/2403.000
BEESAT 3 31 Aug 00:39:54 00:43:47 44° 235° (SW) 00:47:36 437.485
ITUPSAT 1 31 Aug 00:40:32 00:43:43 18° 55° (NE) 00:47:01 437.325
BEESAT 2 31 Aug 00:50:21 00:54:16 45° 235° (SW) 00:58:08 435.950
TISAT 1 31 Aug 00:53:12 00:57:25 79° 73° (ENE) 01:01:41 437.305
CUSAT 1 31 Aug 00:54:24 00:58:26 52° 95° (E) 01:03:54 437.405
ESTCUBE 1 31 Aug 01:01:58 01:05:19 20° 271° (W) 01:08:35 437.505/2401.250
POLYITAN 1 31 Aug 01:06:22 01:10:44 80° 287° (WNW) 01:15:02 437.675
POPSAT HIP 1 31 Aug 01:09:24 01:13:45 77° 287° (WNW) 01:18:02 437.405
DUCHIFAT 1 31 Aug 01:10:49 01:15:09 77° 288° (WNW) 01:19:25 145.980
BEESAT 31 Aug 01:13:11 01:17:21 31° 62° (ENE) 01:21:34 436.000
